DRAUGEN current weather conditions

sailwx.info

Wind from 010 at 22 knots

Air temperature 3.0° C
Dewpoint -7.0° C

Last reported at 2016-Feb-11 23:20 UTC.
Time now 2016-Feb-12 01:24 UTC

Location: N 64°22' E 007°47'.
View on Google Maps.

See reports from other nearby stations

  
Tides and Currents Weather Stations Pressure Air Temp Water Temp Dewpoint Dewpoint Depression Visibility Wind Speed Wind Dir Waves Ship Positions
date/time (UTC)wind fromknots sea level pressurealtimeterstation pressurevisibilityair tempwater tempwave heightnotes
2016-Feb-12 00:20 350 26 2.0
2016-Feb-11 23:50 040 20 3.0
2016-Feb-11 23:20 010 22 3.0
2016-Feb-11 22:50 010 22 3.0
2016-Feb-11 22:20 020 26 3.0
2016-Feb-11 21:50 010 19 2.0
2016-Feb-11 21:20 020 27 3.0
2016-Feb-11 20:50 030 18 2.0
2016-Feb-11 20:20 030 27 1.0
2016-Feb-11 19:50 010 22 3.0
2016-Feb-11 19:20 360 22 3.0
2016-Feb-11 18:50 010 27 3.0
2016-Feb-11 18:20 010 24 3.0
2016-Feb-11 17:50 020 24 3.0
2016-Feb-11 17:20 360 24 3.0
2016-Feb-11 16:50 020 26 2.0
2016-Feb-11 16:20 010 26 3.0
2016-Feb-11 15:50 360 24 gusting 37 2.0
2016-Feb-11 15:10 020 25 5.4 2.0 Showers in the vicinity.
2016-Feb-11 14:50 020 23 2.0
2016-Feb-11 14:20 020 22 2.0
2016-Feb-11 13:50 010 24 3.0
2016-Feb-11 13:20 020 25 2.0
2016-Feb-11 12:50 040 16 2.0
2016-Feb-11 12:10 020 19 2.2 2.0 Showers in the vicinity.
2016-Feb-11 11:50 350 26 3.0
2016-Feb-11 11:20 350 17 3.0
2016-Feb-11 10:50 350 26 1.0
2016-Feb-11 10:20 350 20 3.0
2016-Feb-11 09:50 360 23 3.0
2016-Feb-11 09:20 350 25 2.0
2016-Feb-11 08:50 350 23 2.0
2016-Feb-11 08:20 350 18 1.0
2016-Feb-11 07:50 350 25 gusting 37 1.0
2016-Feb-11 07:20 350 23 2.0
2016-Feb-11 06:50 350 27 2.0
2016-Feb-11 06:20 350 29 2.0
2016-Feb-11 05:50 020 27 1.0
2016-Feb-11 05:20 360 30 2.0
2016-Feb-11 04:50 360 27 2.0
2016-Feb-11 04:20 010 29 2.0
2016-Feb-11 03:50 010 31 2.0
2016-Feb-11 03:20 360 31 3.0
2016-Feb-11 02:50 360 32 3.0
2016-Feb-11 02:20 010 34 2.0
2016-Feb-11 01:50 010 32 2.0
2016-Feb-11 01:20 010 34 2.0
2016-Feb-11 00:50 010 31 3.0
2016-Feb-11 00:20 010 34 3.0
2016-Feb-10 23:50 360 33 3.0
2016-Feb-10 23:20 010 36 gusting 47 3.0
2016-Feb-10 22:50 3.0
2016-Feb-10 22:20 010 35 3.0
2016-Feb-10 21:50 010 36 3.0
2016-Feb-10 21:20 010 32 2.0
2016-Feb-10 20:50 020 36 1.0
2016-Feb-10 20:20 360 9 gusting 39 2.0
2016-Feb-10 19:50 010 31 gusting 44 1.0
2016-Feb-10 19:20 010 32 3.0
2016-Feb-10 18:50 350 30 3.0
2016-Feb-10 18:20 360 29 4.0
2016-Feb-10 17:50 360 27 4.0
2016-Feb-10 17:20 010 30 3.0
2016-Feb-10 16:50 360 27 3.0
2016-Feb-10 16:20 010 32 3.0
2016-Feb-10 15:50 010 34 3.0
2016-Feb-10 15:20 010 34 3.0
2016-Feb-10 14:50 020 25 2.0
2016-Feb-10 14:20 010 34 gusting 45 3.0
2016-Feb-10 13:50 360 32 4.0
2016-Feb-10 13:20 360 30 4.0
2016-Feb-10 12:50 010 27 4.0
2016-Feb-10 12:20 020 34 3.0
2016-Feb-10 11:50 010 27 5.0
2016-Feb-10 11:20 010 29 4.0
2016-Feb-10 10:50 010 31 4.0
2016-Feb-10 10:20 020 30 4.0
2016-Feb-10 09:50 010 30 5.0
2016-Feb-10 09:20 010 30 4.0
2016-Feb-10 08:50 010 33 4.0
2016-Feb-10 08:20 020 36 5.0
2016-Feb-10 07:50 030 31 5.0
2016-Feb-10 07:20 030 35 4.0
2016-Feb-10 06:50 020 39 5.0
2016-Feb-10 06:10 020 39 5.4 5.0
2016-Feb-10 05:50 020 38 5.0
2016-Feb-10 05:20 020 40 5.0
2016-Feb-10 04:50 020 41 5.0
2016-Feb-10 04:20 020 37 5.0
2016-Feb-10 03:50 030 41 5.0
2016-Feb-10 03:20 020 40 5.0
2016-Feb-10 02:50 030 40 5.0
2016-Feb-10 02:20 030 36 5.0
2016-Feb-10 01:50 030 36 5.0
2016-Feb-10 01:20 030 36 5.0